Location: Newark
(52.3500°N, 175.9667°E)
Time: 23:34:38
(UTC+00:00)

Vanguard 1 - Pass Details

Date: 26 April 2021
Orbit: 649 x 3834 km, 34.2° (Epoch: 04 May)

Event Time Altitude Azimuth Distance (km) Brightness Sun altitude
Rises 05:20:43 0° 267° (W) 6,313 15.9 18.8°
Reaches altitude 10° 05:24:53 10° 259° (W) 5,685 16.1 18.2°
Maximum altitude 05:40:49 36° 202° (SSW) 4,856 14.0 15.8°
Drops below altitude 10° 06:00:15 10° 147° (SSE) 6,850 14.0 12.8°
Sets 06:06:02 0° 140° (SE) 7,693 14.2 11.9°
